FW8013 Weather Reports


time (UTC)temp
F
wind
direction
speed
knots
gust
knots
rain 1hr
in
rain 24hr
in
rain mn
in
humidity
%
barometer
mb
20260510153055 67 333 0.0 4.3 0.00 0.32 0.00 83 1013.5
20260510151551 66 300 0.9 6.1 0.00 0.32 0.00 81 1013.4
20260510150119 64 0 1.7 6.1 0.00 0.32 0.00 83 1013.5
20260510144554 63 284 0.9 4.3 0.00 0.32 0.00 86 1013.3
20260510143053 61 0 1.7 5.2 0.00 0.32 0.00 87 1013.2
20260510141551 60 303 0.9 6.1 0.00 0.32 0.00 89 1013.4
20260510140050 59 261 1.7 4.3 0.00 0.32 0.00 90 1013.5
20260510134601 58 0 0.9 3.5 0.00 0.32 0.00 93 1013.3
20260510133058 58 290 0.0 3.5 0.00 0.32 0.00 97 1013.2
20260510131553 56 0 0.9 3.5 0.00 0.32 0.00 97 1013.4
20260510130056 55 0 0.0 3.5 0.00 0.32 0.00 97 1013.5
20260510124604 55 301 0.0 1.7 0.00 0.32 0.00 98 1013.5
20260510123100 54 22 0.0 1.7 0.00 0.32 0.00 98 1013.0
20260510121552 53 0 0.0 1.7 0.00 0.32 0.00 97 1013.0
20260510120054 53 0 0.0 0.9 0.00 0.32 0.00 98 1012.7
20260510114555 52 329 0.9 2.6 0.00 0.32 0.00 98 1012.5
20260510113054 51 0 0.0 1.7 0.00 0.32 0.00 97 1012.1
20260510111603 51 0 0.0 0.0 0.00 0.32 0.00 97 1012.1
20260510110053 51 0 0.0 0.0 0.00 0.32 0.00 97 1012.2
20260510104553 50 0 0.0 0.0 0.00 0.32 0.00 97 1012.0
20260510103103 50 0 0.0 1.7 0.00 0.32 0.00 97 1012.0
20260510101559 50 0 0.0 0.0 0.00 0.32 0.00 97 1011.8
20260510100054 50 0 0.0 0.9 0.00 0.32 0.00 97 1011.7
20260510094605 50 0 0.0 1.7 0.00 0.32 0.00 97 1011.7
20260510093119 50 0 0.0 1.7 0.00 0.32 0.00 97 1011.7
20260510091557 50 0 0.9 2.6 0.00 0.32 0.00 97 1011.7
20260510090055 50 0 0.0 1.7 0.00 0.32 0.00 97 1011.8
20260510084552 50 0 0.0 1.7 0.00 0.32 0.00 97 1011.9
20260510083104 50 53 0.0 2.6 0.00 0.32 0.00 97 1011.8
20260510081548 50 0 0.9 2.6 0.00 0.32 0.00 97 1012.0
20260510080056 50 0 0.9 4.3 0.00 0.32 0.00 96 1011.7
20260510074556 50 0 0.0 0.9 0.00 0.32 0.00 97 1011.2
20260510073055 50 0 0.0 0.0 0.00 0.32 0.00 97 1011.0
20260510071550 50 0 0.0 1.7 0.00 0.32 0.00 97 1011.1
20260510070053 50 0 0.0 0.9 0.00 0.32 0.00 97 1011.3
20260510064559 50 0 0.0 0.9 0.00 0.32 0.00 97 1011.1
20260510063053 50 0 0.0 0.9 0.00 0.32 0.00 97 1011.4
20260510061555 49 0 0.0 0.0 0.00 0.32 0.00 97 1011.3
20260510060048 49 0 0.0 0.0 0.00 0.32 0.00 96 1011.0
20260510054551 49 0 0.0 0.0 0.00 0.32 0.00 97 1011.1
20260510053055 48 0 0.0 0.0 0.00 0.32 0.00 96 1011.1
20260510051605 48 0 0.0 0.9 0.00 0.32 0.00 96 1011.1
20260510050054 48 0 0.0 0.0 0.00 0.32 0.00 96 1011.3
20260510044601 48 0 0.0 0.0 0.00 0.32 0.00 96 1011.3
20260510043051 48 0 0.0 0.0 0.00 0.32 0.00 96 1011.4
20260510041551 47 0 0.0 0.9 0.00 0.32 0.00 96 1011.3
20260510040056 47 0 0.0 0.0 0.00 0.32 0.00 96 1011.5
20260510034553 47 0 0.0 0.0 0.00 0.32 0.32 95 1011.3
20260510033108 47 0 0.0 0.0 0.00 0.32 0.32 95 1011.2
20260510031551 47 0 0.0 0.0 0.00 0.32 0.32 95 1011.2
20260510024553 48 0 0.0 0.9 0.00 0.32 0.32 95 1010.9
20260510023053 47 0 0.0 0.0 0.00 0.32 0.32 95 1010.9
20260510021600 47 0 0.0 0.0 0.00 0.32 0.32 95 1010.9
20260510020053 47 0 0.0 0.0 0.00 0.32 0.32 94 1011.0
20260510014548 48 0 0.0 0.0 0.00 0.32 0.32 94 1010.9
20260510013051 49 0 0.0 0.0 0.00 0.32 0.32 94 1010.9
20260510011552 49 0 0.0 0.0 0.00 0.32 0.32 94 1011.0
20260510010051 50 0 0.0 0.0 0.00 0.32 0.32 94 1010.8
20260510004553 51 0 0.0 0.0 0.00 0.32 0.32 93 1010.6
20260510003051 51 0 0.0 0.0 0.00 0.32 0.32 93 1010.4
20260510001550 52 0 0.0 0.0 0.00 0.32 0.32 93 1010.3
20260510000049 53 0 0.0 0.0 0.00 0.32 0.32 93 1010.2
20260509234554 53 0 0.0 0.0 0.00 0.32 0.32 92 1010.3
20260509233054 54 0 0.0 0.9 0.00 0.32 0.32 92 1010.0
20260509231552 55 208 0.0 1.7 0.00 0.32 0.32 92 1009.8
20260509230057 55 112 0.9 2.6 0.00 0.32 0.32 92 1009.9
20260509224555 55 107 0.9 3.5 0.00 0.32 0.32 91 1010.1
20260509223054 56 123 1.7 3.5 0.00 0.32 0.32 91 1010.1
20260509221553 56 0 0.0 0.9 0.00 0.32 0.32 92 1009.9
20260509220103 55 0 0.9 3.5 0.00 0.32 0.32 92 1010.0
20260509214600 55 94 0.0 2.6 0.01 0.32 0.32 93 1010.2
20260509213122 55 0 0.0 0.0 0.05 0.32 0.32 93 1010.2
20260509211556 54 0 0.0 1.7 0.10 0.32 0.32 94 1010.2
20260509210107 54 0 0.0 0.9 0.11 0.32 0.32 94 1010.3
20260509204555 53 0 0.0 0.9 0.12 0.31 0.31 93 1010.3
20260509203054 54 0 0.0 0.9 0.10 0.27 0.27 93 1010.3
20260509201559 54 0 0.0 0.9 0.06 0.22 0.22 93 1010.6
20260509200100 54 0 0.0 1.7 0.07 0.21 0.21 93 1010.4
20260509194555 54 0 0.9 2.6 0.07 0.19 0.19 92 1010.9
20260509193052 54 0 0.0 4.3 0.07 0.17 0.17 92 1011.1
20260509191551 54 313 0.0 6.1 0.10 0.16 0.16 93 1011.4
20260509190052 54 0 0.0 5.2 0.11 0.14 0.14 92 1011.4
20260509184554 55 329 0.0 3.5 0.11 0.12 0.12 92 1011.5
20260509183053 55 281 0.0 3.5 0.10 0.10 0.10 91 1011.6
20260509181559 55 0 0.0 1.7 0.06 0.06 0.06 91 1011.7
20260509180050 56 0 0.0 1.7 0.03 0.03 0.03 90 1011.2
20260509174552 56 0 0.0 1.7 0.01 0.01 0.01 88 1011.2
20260509173056 57 0 0.0 3.5 0.00 0.00 0.00 86 1011.4
20260509171553 58 303 0.9 5.2 0.00 0.00 0.00 82 1011.7
20260509170055 60 342 0.9 7.8 0.00 0.00 0.00 78 1011.7
20260509164553 61 250 1.7 7.0 0.00 0.00 0.00 75 1011.5
20260509163054 61 0 0.9 7.0 0.00 0.00 0.00 74 1011.7
20260509161551 61 317 2.6 8.7 0.00 0.00 0.00 71 1011.7
20260509160052 61 319 2.6 9.6 0.00 0.00 0.00 75 1011.8
20260509154556 61 291 1.7 6.1 0.00 0.00 0.00 78 1011.8